This is the latest recevied weather packets stored in our database for station/object KG7FOQ-13. If no packets are shown the sender has not sent any weather packets the latest 10 day(s).
| Time | Temp. | Humidity | Pressure | Rain* | Wind** | Luminosity | Snow |
|---|---|---|---|---|---|---|---|
| 1778107605 | 20.56° C | 28% | 1017.1 hPa | 0 mm | - | - | - |
| 1778107304 | 21.11° C | 29% | 1017.2 hPa | 0 mm | - | - | - |
| 1778106703 | 20° C | 27% | 1017.4 hPa | 0 mm | - | - | - |
| 1778106403 | 20.56° C | 29% | 1017.5 hPa | 0 mm | - | - | - |
| 1778106102 | 20.56° C | 28% | 1017.5 hPa | 0 mm | - | - | - |
| 1778105802 | 20° C | 29% | 1017.7 hPa | 0 mm | - | - | - |
| 1778105499 | 20° C | 30% | 1017.7 hPa | 0 mm | - | - | - |
| 1778104595 | 20° C | 31% | 1017.9 hPa | 0 mm | - | - | - |
| 1778104294 | 20° C | 31% | 1017.9 hPa | 0 mm | - | - | - |
| 1778103993 | 20° C | 31% | 1018 hPa | 0 mm | - | - | - |
| 1778103692 | 19.44° C | 30% | 1018 hPa | 0 mm | - | - | - |
| 1778103425 | 19.44° C | 32% | 1018.1 hPa | 0 mm | - | - | - |
| 1778103392 | 19.44° C | 32% | 1018.1 hPa | 0 mm | - | - | - |
| 1778103091 | 19.44° C | 32% | 1018.2 hPa | 0 mm | - | - | - |
| 1778102791 | 18.89° C | 31% | 1018.2 hPa | 0 mm | - | - | - |
| 1778102490 | 18.89° C | 32% | 1018.4 hPa | 0 mm | - | - | - |
| 1778102190 | 18.89° C | 32% | 1018.4 hPa | 0 mm | - | - | - |
| 1778101589 | 18.89° C | 31% | 1018.5 hPa | 0 mm | - | - | - |
| 1778101288 | 18.89° C | 32% | 1018.5 hPa | 0 mm | - | - | - |
| 1778100987 | 18.33° C | 33% | 1018.5 hPa | 0 mm | - | - | - |
| 1778100687 | 18.33° C | 31% | 1018.7 hPa | 0 mm | - | - | - |
| 1778100386 | 18.33° C | 31% | 1018.8 hPa | 0 mm | - | - | - |
| 1778100086 | 18.33° C | 31% | 1018.9 hPa | 0 mm | - | - | - |
| 1778099785 | 17.78° C | 31% | 1018.9 hPa | 0 mm | - | - | - |
| 1778099485 | 18.33° C | 32% | 1018.8 hPa | 0 mm | - | - | - |
* Rain latest hour (hover to see other rain measurements)
** Current wind speed in m/s (hover to see current wind gust speed)